TAN06 EGNX-EGNS

Flight info

Callsign TAN06
Flight time 0h 53m
Altitude 6000
Route TNT UQ4 VABKA DCT WAL L10 KELLY
Aircraft C414/M-A1B2C2D2L1O2S1S2/S

Departure

Time 2026-04-21 16:15
Airport East Midlands Airport (EGNX)

Arrival

Time 2026-04-21 17:09
Airport Isle of Man Airport (EGNS)
Time Latitude Longitude Altitude Speed Heading
2026-04-21 15:43 52.82645 -1.33992 288 ft 0 kts 324°
2026-04-21 15:47 52.82668 -1.33980 291 ft 0 kts 54°
2026-04-21 15:47 52.82674 -1.33959 293 ft 0 kts 54°
2026-04-21 16:06 52.82678 -1.33951 292 ft 6 kts 56°
2026-04-21 16:07 52.82737 -1.33775 292 ft 19 kts 63°
2026-04-21 16:07 52.82778 -1.33712 299 ft 4 kts 13°
2026-04-21 16:07 52.82780 -1.33712 299 ft 0 kts 11°
2026-04-21 16:07 52.82803 -1.33710 298 ft 8 kts 356°
2026-04-21 16:08 52.82907 -1.33910 305 ft 22 kts 270°
2026-04-21 16:08 52.82905 -1.34209 305 ft 28 kts 270°
2026-04-21 16:08 52.82904 -1.34508 307 ft 23 kts 269°
2026-04-21 16:09 52.82898 -1.34773 310 ft 18 kts 262°
2026-04-21 16:09 52.82894 -1.34856 311 ft 0 kts 277°
2026-04-21 16:10 52.82898 -1.34882 311 ft 5 kts 291°
2026-04-21 16:10 52.82903 -1.34899 311 ft 0 kts 302°
2026-04-21 16:11 52.82916 -1.34925 311 ft 10 kts 321°
2026-04-21 16:11 52.82923 -1.34931 311 ft 0 kts 348°
2026-04-21 16:12 52.82961 -1.34938 312 ft 17 kts 358°
2026-04-21 16:13 52.83065 -1.34867 309 ft 0 kts 91°
2026-04-21 16:14 52.83065 -1.34796 308 ft 28 kts 88°
2026-04-21 16:14 52.83076 -1.34153 305 ft 81 kts 90°
2026-04-21 16:14 52.83080 -1.33080 425 ft 104 kts 88°
2026-04-21 16:15 52.83074 -1.31811 710 ft 118 kts 85°
2026-04-21 16:15 52.83124 -1.30374 894 ft 130 kts 84°
2026-04-21 16:15 52.83090 -1.28862 1136 ft 134 kts 94°
2026-04-21 16:15 52.82976 -1.27317 1383 ft 136 kts 92°
2026-04-21 16:16 52.82956 -1.25767 1581 ft 134 kts 81°
2026-04-21 16:16 52.83272 -1.24318 1768 ft 136 kts 62°
2026-04-21 16:16 52.83933 -1.23164 1940 ft 142 kts 41°
2026-04-21 16:16 52.84868 -1.22527 2121 ft 151 kts 20°
2026-04-21 16:17 52.85954 -1.22629 2290 ft 164 kts 352°
2026-04-21 16:17 52.86961 -1.23632 2482 ft 179 kts 321°
2026-04-21 16:17 52.87669 -1.25374 2738 ft 183 kts 310°
2026-04-21 16:17 52.88393 -1.27088 2974 ft 181 kts 315°
2026-04-21 16:18 52.89138 -1.28768 3182 ft 182 kts 315°
2026-04-21 16:18 52.89882 -1.30473 3396 ft 183 kts 315°
2026-04-21 16:18 52.90619 -1.32192 3614 ft 183 kts 314°
2026-04-21 16:18 52.91355 -1.33923 3852 ft 184 kts 314°
2026-04-21 16:19 52.92090 -1.35658 4075 ft 184 kts 313°
2026-04-21 16:19 52.92827 -1.37400 4289 ft 185 kts 313°
2026-04-21 16:19 52.93567 -1.39151 4501 ft 186 kts 313°
2026-04-21 16:19 52.94313 -1.40917 4710 ft 187 kts 313°
2026-04-21 16:20 52.95065 -1.42695 4890 ft 189 kts 312°
2026-04-21 16:20 52.95819 -1.44485 5090 ft 190 kts 311°
2026-04-21 16:20 52.96573 -1.46280 5259 ft 190 kts 311°
2026-04-21 16:20 52.97333 -1.48083 5473 ft 190 kts 311°
2026-04-21 16:21 52.98095 -1.49883 5692 ft 191 kts 312°
2026-04-21 16:21 52.98867 -1.51686 5908 ft 191 kts 311°
2026-04-21 16:21 52.99639 -1.53486 6143 ft 192 kts 311°
2026-04-21 16:21 53.00418 -1.55305 6330 ft 194 kts 312°
2026-04-21 16:22 53.01193 -1.57114 6522 ft 195 kts 312°
2026-04-21 16:22 53.01978 -1.58955 6750 ft 195 kts 311°
2026-04-21 16:22 53.02759 -1.60790 6960 ft 195 kts 312°
2026-04-21 16:22 53.03546 -1.62635 7168 ft 196 kts 311°
2026-04-21 16:23 53.04335 -1.64488 7365 ft 197 kts 311°
2026-04-21 16:23 53.05114 -1.66378 7564 ft 200 kts 306°
2026-04-21 16:23 53.05658 -1.68534 7743 ft 205 kts 285°
2026-04-21 16:23 53.05973 -1.70847 7933 ft 204 kts 288°
2026-04-21 16:24 53.06392 -1.73165 7974 ft 214 kts 290°
2026-04-21 16:24 53.06839 -1.75569 7988 ft 221 kts 289°
2026-04-21 16:24 53.07285 -1.78051 7988 ft 226 kts 288°
2026-04-21 16:24 53.07723 -1.80584 7989 ft 229 kts 288°
2026-04-21 16:25 53.08160 -1.83128 7990 ft 228 kts 288°
2026-04-21 16:25 53.08596 -1.85666 7990 ft 228 kts 288°
2026-04-21 16:25 53.09025 -1.88194 7995 ft 225 kts 287°
2026-04-21 16:25 53.09442 -1.90682 7991 ft 221 kts 288°
2026-04-21 16:26 53.09857 -1.93133 7995 ft 220 kts 290°
2026-04-21 16:26 53.10273 -1.95585 7993 ft 219 kts 288°
2026-04-21 16:26 53.10682 -1.98021 7992 ft 218 kts 288°
2026-04-21 16:26 53.11099 -2.00461 7989 ft 220 kts 288°
2026-04-21 16:27 53.11510 -2.02917 7988 ft 220 kts 288°
2026-04-21 16:27 53.11916 -2.05367 7991 ft 219 kts 287°
2026-04-21 16:27 53.12323 -2.07785 8001 ft 220 kts 287°
2026-04-21 16:27 53.12732 -2.10225 8001 ft 218 kts 287°
2026-04-21 16:28 53.13139 -2.12644 8004 ft 217 kts 287°
2026-04-21 16:28 53.13546 -2.15062 8003 ft 217 kts 287°
2026-04-21 16:28 53.13949 -2.17472 7997 ft 216 kts 287°
2026-04-21 16:28 53.14400 -2.19857 7993 ft 216 kts 294°
2026-04-21 16:29 53.15011 -2.22144 7998 ft 216 kts 299°
2026-04-21 16:29 53.15675 -2.24383 7994 ft 215 kts 299°
2026-04-21 16:29 53.16320 -2.26552 8197 ft 205 kts 299°
2026-04-21 16:29 53.16953 -2.28666 8287 ft 203 kts 299°
2026-04-21 16:30 53.17586 -2.30776 8331 ft 204 kts 299°
2026-04-21 16:30 53.18223 -2.32913 8351 ft 207 kts 299°
2026-04-21 16:30 53.18869 -2.35085 8362 ft 211 kts 300°
2026-04-21 16:30 53.19538 -2.37289 8368 ft 213 kts 298°
2026-04-21 16:31 53.20204 -2.39510 8371 ft 215 kts 299°
2026-04-21 16:31 53.20871 -2.41761 8370 ft 217 kts 299°
2026-04-21 16:31 53.21549 -2.44019 8369 ft 217 kts 301°
2026-04-21 16:31 53.22225 -2.46260 8367 ft 216 kts 298°
2026-04-21 16:32 53.22874 -2.48480 8363 ft 215 kts 296°
2026-04-21 16:32 53.23537 -2.50755 8364 ft 215 kts 300°
2026-04-21 16:32 53.24197 -2.52959 8366 ft 214 kts 298°
2026-04-21 16:32 53.24852 -2.55200 8364 ft 214 kts 298°
2026-04-21 16:33 53.25501 -2.57433 8372 ft 215 kts 298°
2026-04-21 16:33 53.26161 -2.59687 8368 ft 217 kts 298°
2026-04-21 16:33 53.26829 -2.61951 8365 ft 218 kts 298°
2026-04-21 16:33 53.27500 -2.64220 8372 ft 218 kts 298°
2026-04-21 16:34 53.28169 -2.66490 8361 ft 218 kts 298°
2026-04-21 16:34 53.28834 -2.68763 8363 ft 218 kts 298°
2026-04-21 16:34 53.29501 -2.71043 8361 ft 219 kts 298°
2026-04-21 16:34 53.30154 -2.73339 8359 ft 218 kts 296°
2026-04-21 16:35 53.30726 -2.75696 8357 ft 218 kts 292°
2026-04-21 16:35 53.31260 -2.78076 8358 ft 218 kts 292°
2026-04-21 16:35 53.31797 -2.80444 8362 ft 218 kts 292°
2026-04-21 16:35 53.32328 -2.82783 8373 ft 218 kts 292°
2026-04-21 16:36 53.32867 -2.85159 8377 ft 219 kts 292°
2026-04-21 16:36 53.33406 -2.87542 8374 ft 219 kts 292°
2026-04-21 16:36 53.33943 -2.89925 8369 ft 219 kts 292°
2026-04-21 16:36 53.34480 -2.92308 8369 ft 219 kts 292°
2026-04-21 16:37 53.35018 -2.94683 8370 ft 218 kts 292°
2026-04-21 16:37 53.35553 -2.97061 8373 ft 218 kts 292°
2026-04-21 16:37 53.36085 -2.99439 8375 ft 219 kts 292°
2026-04-21 16:37 53.36618 -3.01824 8372 ft 219 kts 292°
2026-04-21 16:38 53.37154 -3.04212 8371 ft 219 kts 292°
2026-04-21 16:38 53.37683 -3.06591 8368 ft 217 kts 292°
2026-04-21 16:38 53.38210 -3.08956 8374 ft 216 kts 292°
2026-04-21 16:38 53.38738 -3.11312 8367 ft 216 kts 292°
2026-04-21 16:39 53.39345 -3.13604 8367 ft 214 kts 302°
2026-04-21 16:39 53.40154 -3.15700 8364 ft 214 kts 308°
2026-04-21 16:39 53.41003 -3.17702 8365 ft 214 kts 309°
2026-04-21 16:39 53.41872 -3.19724 8363 ft 214 kts 309°
2026-04-21 16:40 53.42744 -3.21748 8366 ft 214 kts 309°
2026-04-21 16:40 53.43615 -3.23772 8366 ft 214 kts 309°
2026-04-21 16:40 53.44485 -3.25803 8360 ft 214 kts 309°
2026-04-21 16:40 53.45352 -3.27831 8360 ft 214 kts 309°
2026-04-21 16:41 53.45938 -3.29206 8359 ft 214 kts 309°
2026-04-21 16:41 53.47087 -3.31903 8353 ft 215 kts 309°
2026-04-21 16:41 53.47955 -3.33944 8354 ft 214 kts 308°
2026-04-21 16:41 53.48819 -3.35982 8351 ft 214 kts 308°
2026-04-21 16:42 53.49679 -3.38008 8353 ft 213 kts 308°
2026-04-21 16:42 53.50539 -3.40041 8358 ft 213 kts 308°
2026-04-21 16:42 53.51401 -3.42078 8359 ft 214 kts 308°
2026-04-21 16:42 53.52262 -3.44114 8357 ft 214 kts 309°
2026-04-21 16:43 53.53127 -3.46160 8358 ft 215 kts 309°
2026-04-21 16:43 53.53994 -3.48212 8359 ft 215 kts 308°
2026-04-21 16:43 53.54857 -3.50261 8357 ft 214 kts 308°
2026-04-21 16:43 53.55718 -3.52304 8355 ft 215 kts 309°
2026-04-21 16:44 53.56583 -3.54355 8356 ft 215 kts 309°
2026-04-21 16:44 53.57435 -3.56380 8356 ft 214 kts 308°
2026-04-21 16:44 53.58297 -3.58430 8356 ft 214 kts 309°
2026-04-21 16:44 53.59158 -3.60482 8356 ft 215 kts 309°
2026-04-21 16:45 53.60022 -3.62538 8357 ft 215 kts 308°
2026-04-21 16:45 53.60882 -3.64588 8360 ft 214 kts 308°
2026-04-21 16:45 53.61740 -3.66633 8357 ft 213 kts 308°
2026-04-21 16:45 53.62596 -3.68680 8356 ft 213 kts 308°
2026-04-21 16:46 53.63451 -3.70722 8356 ft 213 kts 308°
2026-04-21 16:46 53.64304 -3.72764 8353 ft 213 kts 308°
2026-04-21 16:46 53.65156 -3.74805 8351 ft 212 kts 308°
2026-04-21 16:46 53.66007 -3.76839 8351 ft 212 kts 308°
2026-04-21 16:47 53.66853 -3.78869 8351 ft 212 kts 308°
2026-04-21 16:47 53.67699 -3.80900 8353 ft 212 kts 308°
2026-04-21 16:47 53.68548 -3.82938 8351 ft 212 kts 308°
2026-04-21 16:47 53.69397 -3.84979 8357 ft 212 kts 308°
2026-04-21 16:48 53.70247 -3.87025 8359 ft 213 kts 308°
2026-04-21 16:48 53.71087 -3.89044 8361 ft 213 kts 308°
2026-04-21 16:48 53.71938 -3.91095 8359 ft 213 kts 308°
2026-04-21 16:48 53.72791 -3.93151 8361 ft 214 kts 308°
2026-04-21 16:49 53.73644 -3.95212 8362 ft 214 kts 308°
2026-04-21 16:49 53.74499 -3.97274 8355 ft 214 kts 308°
2026-04-21 16:49 53.75348 -3.99336 8355 ft 214 kts 308°
2026-04-21 16:49 53.76201 -4.01406 8354 ft 214 kts 308°
2026-04-21 16:50 53.77051 -4.03471 8356 ft 214 kts 308°
2026-04-21 16:50 53.77923 -4.05581 8133 ft 224 kts 308°
2026-04-21 16:50 53.78823 -4.07760 7878 ft 228 kts 308°
2026-04-21 16:50 53.79734 -4.09969 7625 ft 230 kts 308°
2026-04-21 16:51 53.80340 -4.11441 7458 ft 230 kts 308°
2026-04-21 16:51 53.81556 -4.14397 7127 ft 231 kts 308°
2026-04-21 16:51 53.82474 -4.16633 6877 ft 231 kts 307°
2026-04-21 16:51 53.83390 -4.18865 6621 ft 231 kts 307°
2026-04-21 16:52 53.84009 -4.20373 6444 ft 230 kts 308°
2026-04-21 16:52 53.84921 -4.22600 6174 ft 230 kts 308°
2026-04-21 16:52 53.85826 -4.24811 5918 ft 227 kts 308°
2026-04-21 16:52 53.86723 -4.27006 5663 ft 226 kts 309°
2026-04-21 16:53 53.87617 -4.29192 5414 ft 226 kts 309°
2026-04-21 16:53 53.88510 -4.31379 5157 ft 226 kts 310°
2026-04-21 16:53 53.89401 -4.33561 4892 ft 225 kts 310°
2026-04-21 16:53 53.90299 -4.35734 4628 ft 224 kts 313°
2026-04-21 16:54 53.91369 -4.37601 4367 ft 218 kts 326°
2026-04-21 16:54 53.92523 -4.39267 4085 ft 218 kts 327°
2026-04-21 16:54 53.93674 -4.40930 3828 ft 216 kts 327°
2026-04-21 16:54 53.94814 -4.42580 3571 ft 215 kts 327°
2026-04-21 16:55 53.95938 -4.44225 3417 ft 209 kts 327°
2026-04-21 16:55 53.97019 -4.45825 3396 ft 204 kts 327°
2026-04-21 16:55 53.98066 -4.47374 3384 ft 201 kts 327°
2026-04-21 16:55 53.99118 -4.48928 3379 ft 201 kts 327°
2026-04-21 16:56 54.00179 -4.50492 3376 ft 203 kts 327°
2026-04-21 16:56 54.01246 -4.52068 3374 ft 203 kts 327°
2026-04-21 16:56 54.02313 -4.53648 3372 ft 204 kts 327°
2026-04-21 16:56 54.03380 -4.55232 3370 ft 203 kts 327°
2026-04-21 16:57 54.04446 -4.56814 3424 ft 203 kts 327°
2026-04-21 16:57 54.05486 -4.58434 3421 ft 205 kts 320°
2026-04-21 16:57 54.06255 -4.60516 3421 ft 212 kts 296°
2026-04-21 16:57 54.06558 -4.62988 3430 ft 216 kts 273°
2026-04-21 16:58 54.06340 -4.65499 3425 ft 215 kts 249°
2026-04-21 16:58 54.05633 -4.67679 3416 ft 209 kts 226°
2026-04-21 16:58 54.04708 -4.69626 3240 ft 215 kts 227°
2026-04-21 16:58 54.03790 -4.71657 3107 ft 217 kts 227°
2026-04-21 16:59 54.02866 -4.73697 2977 ft 215 kts 227°
2026-04-21 16:59 54.01960 -4.75686 2847 ft 210 kts 226°
2026-04-21 16:59 54.01066 -4.77628 2718 ft 208 kts 226°
2026-04-21 16:59 54.00178 -4.79550 2588 ft 206 kts 226°
2026-04-21 17:00 53.99308 -4.81430 2463 ft 204 kts 227°
2026-04-21 17:00 53.98626 -4.83558 2328 ft 208 kts 250°
2026-04-21 17:00 53.98452 -4.85198 2237 ft 210 kts 268°
2026-04-21 17:00 53.98825 -4.88361 2063 ft 205 kts 301°
2026-04-21 17:01 53.99625 -4.90248 2066 ft 190 kts 325°
2026-04-21 17:01 54.00660 -4.91485 2084 ft 175 kts 346°
2026-04-21 17:01 54.01780 -4.92080 2094 ft 163 kts
2026-04-21 17:01 54.02878 -4.92100 2103 ft 154 kts 19°
2026-04-21 17:02 54.03885 -4.91639 2100 ft 147 kts 33°
2026-04-21 17:02 54.04734 -4.90806 2115 ft 132 kts 47°
2026-04-21 17:02 54.05364 -4.89795 2119 ft 119 kts 58°
2026-04-21 17:02 54.05812 -4.88672 2108 ft 111 kts 68°
2026-04-21 17:03 54.06101 -4.87494 2110 ft 106 kts 76°
2026-04-21 17:03 54.06236 -4.86304 2112 ft 103 kts 85°
2026-04-21 17:03 54.06324 -4.85104 2113 ft 102 kts 83°
2026-04-21 17:03 54.06430 -4.83917 2110 ft 101 kts 83°
2026-04-21 17:04 54.06523 -4.82737 2110 ft 100 kts 84°
2026-04-21 17:04 54.06616 -4.81560 2115 ft 100 kts 84°
2026-04-21 17:04 54.06712 -4.80374 2117 ft 102 kts 83°
2026-04-21 17:04 54.06811 -4.79178 2109 ft 102 kts 83°
2026-04-21 17:05 54.06914 -4.78017 2106 ft 98 kts 82°
2026-04-21 17:05 54.07017 -4.76818 1898 ft 104 kts 83°
2026-04-21 17:05 54.07118 -4.75610 1817 ft 105 kts 83°
2026-04-21 17:05 54.07218 -4.74338 1554 ft 114 kts 83°
2026-04-21 17:06 54.07334 -4.73036 1363 ft 103 kts 83°
2026-04-21 17:06 54.07426 -4.71982 1276 ft 81 kts 83°
2026-04-21 17:06 54.07501 -4.71046 1161 ft 81 kts 82°
2026-04-21 17:06 54.07579 -4.70107 987 ft 78 kts 82°
2026-04-21 17:07 54.07653 -4.69222 892 ft 73 kts 81°
2026-04-21 17:07 54.07730 -4.68349 740 ft 79 kts 81°
2026-04-21 17:07 54.07818 -4.67415 638 ft 79 kts 88°
2026-04-21 17:07 54.07837 -4.66445 511 ft 82 kts 78°
2026-04-21 17:08 54.07916 -4.65494 338 ft 84 kts 75°
2026-04-21 17:08 54.08055 -4.64527 165 ft 83 kts 77°
2026-04-21 17:08 54.08142 -4.63604 81 ft 75 kts 72°
2026-04-21 17:08 54.08270 -4.62796 48 ft 65 kts 77°
2026-04-21 17:09 54.08421 -4.61634 41 ft 35 kts 78°
2026-04-21 17:09 54.08467 -4.61439 39 ft 13 kts 27°
2026-04-21 17:09 54.08527 -4.61495 40 ft 10 kts 285°
2026-04-21 17:10 54.08538 -4.61610 40 ft 10 kts 278°
2026-04-21 17:10 54.08545 -4.61722 40 ft 9 kts 274°
2026-04-21 17:10 54.08550 -4.61822 41 ft 8 kts 275°
2026-04-21 17:10 54.08547 -4.61923 41 ft 11 kts 259°
2026-04-21 17:11 54.08527 -4.62079 42 ft 14 kts 259°
2026-04-21 17:11 54.08507 -4.62237 42 ft 13 kts 257°
2026-04-21 17:11 54.08489 -4.62385 42 ft 12 kts 258°
2026-04-21 17:11 54.08471 -4.62535 41 ft 15 kts 258°
2026-04-21 17:12 54.08448 -4.62712 42 ft 14 kts 256°
2026-04-21 17:12 54.08427 -4.62880 41 ft 15 kts 257°
2026-04-21 17:12 54.08405 -4.63046 41 ft 14 kts 259°
2026-04-21 17:12 54.08407 -4.63201 41 ft 13 kts 292°
2026-04-21 17:13 54.08445 -4.63325 41 ft 11 kts 308°
2026-04-21 17:13 54.08507 -4.63356 41 ft 9 kts 348°
2026-04-21 17:13 54.08564 -4.63359 41 ft 8 kts 24°
2026-04-21 17:13 54.08585 -4.63333 41 ft 0 kts 50°